GW1330 Weather Reports


time (UTC)temp
F
wind
direction
speed
knots
gust
knots
rain 1hr
in
rain 24hr
in
rain mn
in
humidity
%
barometer
mb
20260509224259 61 75 0.0 0.9 0.00 0.12 0.12 79 1009.0
20260509223755 61 79 0.0 0.9 0.00 0.12 0.12 79 1009.1
20260509223253 61 74 0.0 0.0 0.00 0.12 0.12 79 1009.0
20260509222749 61 75 0.0 0.0 0.00 0.12 0.12 78 1009.0
20260509222245 61 70 0.0 0.9 0.00 0.12 0.12 79 1009.2
20260509221740 61 78 0.0 0.9 0.00 0.12 0.12 79 1008.9
20260509221237 61 70 0.0 0.0 0.00 0.12 0.12 78 1009.3
20260509220733 61 68 0.0 1.7 0.00 0.12 0.12 77 1008.9
20260509220230 61 83 0.9 1.7 0.00 0.12 0.12 79 1009.2
20260509215725 61 76 0.9 0.9 0.00 0.12 0.12 81 1008.9
20260509215222 61 76 1.7 1.7 0.00 0.12 0.12 79 1009.3
20260509214719 61 70 0.0 0.9 0.00 0.12 0.12 79 1009.2
20260509214216 61 77 0.0 0.9 0.00 0.12 0.12 78 1009.3
20260509213713 61 75 0.9 0.9 0.00 0.12 0.12 78 1009.3
20260509213208 61 75 0.9 1.7 0.00 0.12 0.12 78 1009.2
20260509212707 61 68 0.0 0.9 0.00 0.12 0.12 80 1009.4
20260509212203 61 82 0.9 0.9 0.00 0.12 0.12 79 1009.4
20260509211659 61 75 0.0 1.7 0.00 0.12 0.12 80 1009.4
20260509211156 61 86 1.7 1.7 0.00 0.12 0.12 80 1009.4
20260509210652 61 60 0.9 0.9 0.00 0.12 0.12 82 1009.6
20260509210144 60 76 0.9 2.6 0.00 0.12 0.12 83 1009.6
20260509205639 60 92 0.9 1.7 0.00 0.12 0.12 83 1009.7
20260509205138 60 74 0.0 0.9 0.00 0.12 0.12 84 1009.7
20260509204635 60 52 0.0 0.0 0.00 0.12 0.12 85 1010.0
20260509204131 59 52 0.0 0.0 0.00 0.12 0.12 86 1010.0
20260509203627 59 52 0.0 0.0 0.00 0.12 0.12 90 1010.0
20260509203126 59 52 0.0 0.0 0.00 0.12 0.12 90 1010.1
20260509202626 59 52 0.0 0.0 0.00 0.12 0.12 90 1010.2
20260509202121 58 52 0.0 0.9 0.00 0.12 0.12 90 1010.2
20260509201616 58 53 0.0 0.9 0.00 0.12 0.12 89 1010.0
20260509201114 58 52 0.0 0.9 0.00 0.12 0.12 89 1009.9
20260509200615 58 62 0.0 0.9 0.00 0.12 0.12 88 1009.8
20260509200105 58 63 0.0 0.9 0.00 0.12 0.12 88 1009.6
20260509195601 58 59 0.0 0.0 0.00 0.12 0.12 88 1009.6
20260509195056 58 59 0.0 0.0 0.00 0.12 0.12 88 1010.0
20260509194555 58 58 0.0 0.0 0.00 0.12 0.12 88 1010.2
20260509194054 58 58 0.0 0.0 0.00 0.12 0.12 87 1010.2
20260509193549 58 57 0.0 1.7 0.00 0.12 0.12 86 1010.2
20260509193045 59 59 0.0 1.7 0.00 0.12 0.12 86 1010.1
20260509192542 59 82 1.7 2.6 0.00 0.12 0.12 85 1010.0
20260509192037 59 75 0.0 0.9 0.00 0.12 0.12 85 1010.3
20260509191531 59 79 0.9 1.7 0.00 0.12 0.12 84 1010.5
20260509191027 59 65 0.0 1.7 0.00 0.12 0.12 86 1010.6
20260509190525 59 79 0.0 0.9 0.00 0.12 0.12 89 1010.5
20260509190023 58 81 0.9 1.7 0.00 0.12 0.12 88 1010.6
20260509185520 59 75 0.0 1.7 0.00 0.12 0.12 88 1010.7
20260509185016 58 76 0.0 1.7 0.00 0.12 0.12 90 1010.8
20260509184514 58 60 0.0 1.7 0.00 0.12 0.12 90 1011.0
20260509184010 57 67 0.0 0.9 0.00 0.12 0.12 91 1010.9
20260509183505 57 57 0.0 0.9 0.00 0.12 0.12 91 1010.9
20260509183002 57 73 0.0 0.9 0.00 0.12 0.12 91 1010.7
20260509182458 57 70 0.0 0.9 0.00 0.12 0.12 92 1010.9
20260509181955 57 70 0.9 0.9 0.00 0.12 0.12 92 1010.8
20260509181453 57 79 0.9 1.7 0.00 0.12 0.12 92 1010.8
20260509180951 56 72 0.0 1.7 0.00 0.12 0.12 94 1010.6
20260509180446 57 87 0.9 1.7 0.00 0.12 0.12 94 1010.6
20260509175943 56 89 0.9 1.7 0.00 0.12 0.12 94 1010.6
20260509175439 56 71 0.9 0.9 0.00 0.12 0.12 94 1011.1
20260509174936 55 78 1.7 1.7 0.00 0.12 0.12 95 1010.8
20260509174432 56 76 0.0 0.0 0.00 0.12 0.12 96 1011.0
20260509173927 55 76 0.0 0.0 0.00 0.12 0.12 96 1011.0
20260509173421 55 77 0.0 0.9 0.00 0.12 0.12 96 1011.2
20260509172918 56 66 0.0 0.0 0.00 0.12 0.12 97 1011.4
20260509172415 56 66 0.0 0.0 0.00 0.12 0.12 97 1011.5
20260509171911 56 66 0.0 0.0 0.00 0.12 0.12 97 1011.4
20260509171407 55 66 0.0 0.0 0.00 0.12 0.12 97 1011.5
20260509170903 55 65 0.0 0.0 0.00 0.12 0.12 97 1011.5
20260509170359 55 71 0.0 0.9 0.00 0.12 0.12 97 1011.7
20260509165855 55 68 0.0 0.0 0.00 0.12 0.12 97 1011.4
20260509165349 55 71 0.0 0.0 0.00 0.12 0.12 97 1011.5
20260509164845 54 58 0.0 0.0 0.00 0.12 0.12 97 1011.7
20260509164341 54 57 0.0 0.0 0.00 0.12 0.12 96 1011.6
20260509163838 54 70 0.0 0.0 0.00 0.12 0.12 97 1011.4
20260509163334 54 60 0.0 0.0 0.00 0.12 0.12 96 1011.4
20260509162833 53 55 0.0 0.0 0.00 0.12 0.12 96 1011.1
20260509162326 53 63 0.0 0.0 0.00 0.12 0.12 97 1011.2
20260509161823 53 61 0.0 1.7 0.00 0.12 0.12 96 1010.9
20260509161319 53 66 0.0 0.9 0.05 0.12 0.12 96 1010.8
20260509160815 53 77 0.9 1.7 0.05 0.12 0.12 96 1010.9
20260509160311 53 76 0.9 1.7 0.00 0.11 0.11 96 1010.9
20260509155806 53 74 0.0 0.0 0.00 0.11 0.11 95 1011.1
20260509155306 53 73 0.0 0.0 0.00 0.11 0.11 95 1011.2
20260509154759 53 73 0.0 0.0 0.07 0.11 0.11 95 1011.5
20260509154256 53 73 0.0 0.0 0.12 0.10 0.10 94 1011.9
20260509153753 53 73 0.0 0.0 0.19 0.10 0.10 94 1012.1
20260509153249 53 73 0.0 0.0 0.19 0.08 0.08 93 1012.2
20260509152746 54 73 0.0 0.0 0.24 0.07 0.07 93 1012.2
20260509152242 54 73 0.0 0.0 0.17 0.05 0.05 92 1012.5
20260509151739 54 73 0.0 0.0 0.12 0.03 0.03 92 1012.3
20260509151236 54 74 0.0 0.0 0.05 0.01 0.01 91 1012.3
20260509150734 54 74 0.0 0.0 0.05 0.01 0.01 91 1012.1
20260509150232 55 74 0.0 0.0 0.00 0.00 0.00 90 1012.2
20260509145728 55 74 0.0 0.0 0.00 0.00 0.00 90 1012.0
20260509145223 55 74 0.0 0.0 0.00 0.00 0.00 89 1012.0
20260509144720 55 74 0.0 0.0 0.00 0.00 0.00 89 1012.2
20260509144217 55 74 0.0 0.0 0.00 0.00 0.00 88 1011.9
20260509143714 55 74 0.0 0.0 0.00 0.00 0.00 87 1011.8
20260509143211 56 74 0.0 0.0 0.00 0.00 0.00 86 1011.8
20260509142706 56 74 0.0 0.0 0.00 0.00 0.00 84 1011.9
20260509142203 56 74 0.0 0.0 0.00 0.00 0.00 83 1011.8
20260509141659 56 73 0.0 0.0 0.00 0.00 0.00 81 1011.9
20260509141156 56 73 0.0 0.0 0.00 0.00 0.00 79 1011.8
20260509140653 55 73 0.0 0.0 0.00 0.00 0.00 79 1011.7
20260509140151 55 74 0.0 0.9 0.00 0.00 0.00 80 1011.5
20260509135647 56 64 0.0 0.9 0.00 0.00 0.00 81 1011.5
20260509135146 56 57 0.0 0.9 0.00 0.00 0.00 81 1011.6
20260509134642 56 71 0.0 1.7 0.00 0.00 0.00 79 1011.5
20260509134139 56 74 0.0 0.0 0.00 0.00 0.00 82 1011.5
20260509133637 55 75 0.0 0.9 0.00 0.00 0.00 82 1011.4
20260509133134 55 80 0.9 0.9 0.00 0.00 0.00 83 1011.6
20260509132632 55 76 0.0 0.9 0.00 0.00 0.00 84 1011.4
20260509132130 54 76 0.0 0.9 0.00 0.00 0.00 86 1011.5
20260509131626 54 83 0.9 0.9 0.00 0.00 0.00 86 1011.6
20260509131123 54 63 0.0 0.0 0.00 0.00 0.00 87 1011.2
20260509130619 54 62 0.0 0.0 0.00 0.00 0.00 86 1011.3
20260509130115 53 62 0.0 0.0 0.00 0.00 0.00 85 1011.1
20260509125612 53 55 0.0 0.9 0.00 0.00 0.00 85 1010.8
20260509125108 54 51 0.0 0.9 0.00 0.00 0.00 85 1010.7
20260509124605 54 53 0.0 0.0 0.00 0.00 0.00 86 1010.7
20260509124102 54 48 0.0 0.9 0.00 0.00 0.00 85 1010.8
20260509123600 54 61 0.0 0.9 0.00 0.00 0.00 84 1010.9
20260509123057 54 62 0.0 0.0 0.00 0.00 0.00 83 1011.3
20260509122553 54 62 0.0 0.0 0.00 0.00 0.00 84 1011.3
20260509122050 54 63 0.0 0.0 0.00 0.00 0.00 85 1011.6
20260509121546 54 63 0.0 0.0 0.00 0.00 0.00 85 1011.4
20260509121048 54 63 0.0 0.0 0.00 0.00 0.00 84 1011.4
20260509120542 54 63 0.0 0.0 0.00 0.00 0.00 84 1011.4
20260509120040 54 63 0.0 0.0 0.00 0.00 0.00 84 1011.3
20260509115537 53 63 0.0 0.0 0.00 0.00 0.00 83 1011.4
20260509115035 53 63 0.0 0.0 0.00 0.00 0.00 81 1010.9
20260509114533 53 62 0.0 0.0 0.00 0.00 0.00 82 1010.8
20260509114031 53 62 0.0 0.0 0.00 0.00 0.00 83 1011.1
20260509113529 53 63 0.0 0.0 0.00 0.00 0.00 83 1011.2
20260509113027 53 62 0.0 0.0 0.00 0.00 0.00 84 1011.2
20260509112523 53 63 0.0 0.9 0.00 0.00 0.00 82 1011.1
20260509112020 53 64 0.0 0.0 0.00 0.00 0.00 81 1010.8
20260509111517 53 64 0.0 0.9 0.00 0.00 0.00 82 1011.1
20260509111014 53 64 0.0 0.0 0.00 0.00 0.00 83 1010.6
20260509110510 53 64 0.0 0.0 0.00 0.00 0.00 81 1010.9
20260509110008 53 54 0.0 0.0 0.00 0.00 0.00 81 1010.7
20260509105506 53 53 0.9 0.9 0.00 0.00 0.00 81 1010.5
20260509105004 53 73 0.0 0.0 0.00 0.00 0.00 81 1010.6
20260509104500 53 77 0.9 2.6 0.00 0.00 0.00 81 1010.7
20260509103957 53 59 0.0 0.9 0.00 0.00 0.00 80 1010.7
20260509103455 53 59 0.0 0.0 0.00 0.00 0.00 80 1010.6
20260509102953 53 59 0.0 0.0 0.00 0.00 0.00 79 1010.7
20260509102450 53 57 0.0 0.0 0.00 0.00 0.00 79 1010.7
20260509101946 53 58 0.0 1.7 0.00 0.00 0.00 78 1010.8
20260509101442 53 75 0.0 0.0 0.00 0.00 0.00 79 1010.4
20260509100940 53 75 0.0 0.0 0.00 0.00 0.00 78 1010.5
20260509100437 53 75 0.0 1.7 0.00 0.00 0.00 79 1010.6
20260509095933 53 75 0.0 0.0 0.00 0.00 0.00 80 1010.6
20260509095430 53 75 0.0 0.9 0.00 0.00 0.00 77 1010.5
20260509094927 53 75 0.0 0.0 0.00 0.00 0.00 77 1010.3
20260509094424 53 75 0.0 0.9 0.00 0.00 0.00 77 1010.4
20260509093922 53 75 0.0 0.0 0.00 0.00 0.00 77 1010.5
20260509093419 53 75 0.0 0.0 0.00 0.00 0.00 77 1010.6
20260509092917 53 75 0.0 0.0 0.00 0.00 0.00 77 1010.5
20260509092415 53 75 0.0 0.9 0.00 0.00 0.00 77 1010.5
20260509091913 53 75 0.0 0.0 0.00 0.00 0.00 77 1010.7
20260509091409 54 75 0.0 0.0 0.00 0.00 0.00 76 1010.8
20260509090907 54 75 0.0 0.0 0.00 0.00 0.00 76 1010.6
20260509090404 54 75 0.0 1.7 0.00 0.00 0.00 76 1010.4
20260509085902 54 78 0.0 1.7 0.00 0.00 0.00 75 1010.6
20260509085359 54 71 0.0 0.9 0.00 0.00 0.00 76 1010.7
20260509084854 54 71 0.9 0.9 0.00 0.00 0.00 75 1010.6
20260509084352 54 71 0.0 1.7 0.00 0.00 0.00 75 1010.8
20260509083849 53 70 0.9 0.9 0.00 0.00 0.00 75 1010.9
20260509083346 53 73 0.0 0.9 0.00 0.00 0.00 75 1010.9
20260509082843 53 71 0.0 0.0 0.00 0.00 0.00 75 1010.9
20260509082339 54 72 0.0 0.0 0.00 0.00 0.00 75 1010.9
20260509081837 54 71 0.0 0.0 0.00 0.00 0.00 75 1010.9
20260509081334 54 73 0.0 0.9 0.00 0.00 0.00 75 1010.8
20260509080832 54 71 0.0 0.0 0.00 0.00 0.00 74 1010.9
20260509080329 54 70 0.0 0.9 0.00 0.00 0.00 74 1011.0
20260509075827 53 76 0.9 0.9 0.00 0.00 0.00 74 1011.0
20260509075324 53 68 0.0 1.7 0.00 0.00 0.00 75 1011.1
20260509074821 53 67 0.0 0.0 0.00 0.00 0.00 76 1010.9
20260509074319 53 67 0.0 0.0 0.00 0.00 0.00 76 1011.0
20260509073815 53 67 0.0 0.0 0.00 0.00 0.00 75 1011.3
20260509073312 53 66 0.0 0.0 0.00 0.00 0.00 74 1010.9
20260509072808 53 66 0.0 0.0 0.00 0.00 0.00 74 1011.2
20260509072306 53 67 0.0 0.0 0.00 0.00 0.00 75 1011.2
20260509071801 53 68 0.0 0.9 0.00 0.00 0.00 75 1011.1
20260509071259 53 66 0.0 0.9 0.00 0.00 0.00 76 1011.1
20260509070755 52 66 0.0 0.0 0.00 0.00 0.00 77 1011.3
20260509070252 51 65 0.0 0.0 0.00 0.00 0.00 81 1011.4
20260509065748 51 65 0.0 0.0 0.00 0.00 0.00 81 1011.3
20260509065245 51 65 0.0 0.0 0.00 0.00 0.00 80 1011.3
20260509064741 52 65 0.0 0.0 0.00 0.00 0.00 80 1011.4
20260509064238 52 65 0.0 0.0 0.00 0.00 0.00 78 1011.4
20260509063736 53 65 0.0 0.0 0.00 0.00 0.00 79 1011.4
20260509063232 53 65 0.0 0.0 0.00 0.00 0.00 75 1011.4
20260509062730 53 65 0.0 0.0 0.00 0.00 0.00 74 1011.5
20260509062227 54 66 0.0 0.0 0.00 0.00 0.00 74 1011.5
20260509061724 54 66 0.0 0.0 0.00 0.00 0.00 74 1011.5
20260509061221 54 66 0.0 0.0 0.00 0.00 0.00 74 1011.5
20260509060719 54 66 0.0 0.0 0.00 0.00 0.00 73 1011.6
20260509060215 54 65 0.0 0.9 0.00 0.00 0.00 73 1011.4
20260509055710 55 51 0.9 1.7 0.00 0.00 0.00 72 1011.5
20260509055206 55 48 0.9 1.7 0.00 0.00 0.00 73 1011.7
20260509054703 55 56 0.9 0.9 0.00 0.00 0.00 72 1011.6
20260509054200 55 58 0.0 0.9 0.00 0.00 0.00 72 1011.7
20260509053659 55 70 0.0 0.9 0.00 0.00 0.00 73 1011.7
20260509053155 55 53 0.0 1.7 0.00 0.00 0.00 72 1011.8
20260509052653 55 56 0.0 0.0 0.00 0.00 0.00 73 1011.7
20260509052150 55 59 0.9 0.9 0.00 0.00 0.00 73 1011.7
20260509051648 55 65 0.9 0.9 0.00 0.00 0.00 73 1011.7
20260509051145 55 79 0.9 1.7 0.00 0.00 0.00 72 1011.8
20260509050642 55 76 0.9 1.7 0.00 0.00 0.00 73 1011.8
20260509050139 55 73 0.0 0.9 0.00 0.00 0.00 74 1012.0
20260509045637 55 72 0.0 0.9 0.00 0.00 0.00 74 1011.7
20260509045133 55 63 0.9 0.9 0.00 0.00 0.00 76 1012.1
20260509044630 54 50 0.0 0.0 0.00 0.00 0.00 79 1011.9
20260509044128 54 50 0.0 0.0 0.00 0.00 0.00 80 1012.1
20260509043624 54 50 0.0 0.0 0.00 0.00 0.00 81 1012.0
20260509043120 54 50 0.0 0.0 0.00 0.00 0.00 81 1012.0
20260509042617 55 50 0.0 0.0 0.00 0.00 0.00 81 1012.0
20260509042112 55 50 0.0 0.0 0.00 0.00 0.00 78 1011.9
20260509041609 55 50 0.0 0.9 0.00 0.00 0.00 78 1011.8
20260509041107 55 52 0.0 0.0 0.00 0.00 0.00 80 1011.7
20260509040605 55 52 0.0 0.0 0.00 0.00 0.00 79 1011.8
20260509035558 56 52 0.0 0.0 0.00 0.00 0.00 77 1012.2
20260509035055 55 52 0.0 0.0 0.00 0.00 0.00 78 1012.1
20260509034553 55 52 0.0 0.0 0.00 0.00 0.00 78 1012.1
20260509034050 56 52 0.0 0.0 0.00 0.00 0.00 78 1012.3
20260509033547 56 52 0.0 0.0 0.00 0.00 0.00 75 1012.2
20260509033044 56 52 0.0 0.0 0.00 0.00 0.00 75 1012.5
20260509032541 56 52 0.0 0.0 0.00 0.00 0.00 74 1012.3
20260509032038 56 52 0.0 0.0 0.00 0.00 0.00 74 1012.4
20260509031536 56 52 0.0 0.0 0.00 0.00 0.00 75 1012.4
20260509031033 56 52 0.0 0.0 0.00 0.00 0.00 75 1012.5
20260509030531 56 52 0.0 0.0 0.00 0.00 0.00 76 1012.4
20260509030027 56 52 0.0 0.0 0.00 0.00 0.00 75 1012.5
20260509025524 56 52 0.0 0.0 0.00 0.00 0.00 73 1012.5
20260509025019 56 52 0.0 0.0 0.00 0.00 0.00 74 1012.6
20260509024516 56 52 0.0 0.0 0.00 0.00 0.00 74 1012.3
20260509024012 56 52 0.0 0.0 0.00 0.00 0.00 74 1012.4
20260509023510 56 52 0.0 0.0 0.00 0.00 0.00 74 1012.3
20260509023006 56 52 0.0 0.0 0.00 0.00 0.00 75 1012.1
20260509022503 56 52 0.0 0.0 0.00 0.00 0.00 74 1012.0
20260509022001 56 52 0.0 0.0 0.00 0.00 0.00 73 1012.0
20260509021457 56 52 0.0 0.0 0.00 0.00 0.00 72 1012.0
20260509020954 56 52 0.0 0.0 0.00 0.00 0.00 73 1012.1
20260509020453 57 52 0.0 0.0 0.00 0.00 0.00 71 1011.8
20260509015949 56 52 0.0 0.0 0.00 0.00 0.00 72 1011.8
20260509015448 56 52 0.0 0.0 0.00 0.00 0.00 72 1011.9
20260509014944 56 52 0.0 0.0 0.00 0.00 0.00 70 1011.9
20260509014441 56 52 0.0 0.0 0.00 0.00 0.00 71 1012.2
20260509013937 57 52 0.0 0.0 0.00 0.00 0.00 72 1012.1
20260509013435 57 52 0.0 0.0 0.00 0.00 0.00 67 1012.0
20260509012930 57 52 0.0 0.0 0.00 0.00 0.00 66 1011.9
20260509012427 57 52 0.0 0.0 0.00 0.00 0.00 66 1011.9
20260509011924 57 52 0.0 0.0 0.00 0.00 0.00 66 1012.0
20260509011421 57 52 0.0 0.0 0.00 0.00 0.00 66 1011.8
20260509010919 57 52 0.0 0.0 0.00 0.00 0.00 65 1011.8
20260509010417 57 52 0.0 0.0 0.00 0.00 0.00 67 1011.7
20260509005913 57 52 0.0 0.0 0.00 0.00 0.00 67 1011.8
20260509005411 57 52 0.0 0.0 0.00 0.00 0.00 67 1011.9
20260509004911 57 52 0.0 0.0 0.00 0.00 0.00 67 1011.7
20260509004408 57 52 0.0 0.0 0.00 0.00 0.00 67 1011.7
20260509003906 57 52 0.0 0.0 0.00 0.00 0.00 68 1011.9
20260509003403 57 52 0.0 0.0 0.00 0.00 0.00 65 1011.6
20260509002900 57 52 0.0 0.0 0.00 0.00 0.00 64 1011.6
20260509002358 57 52 0.0 0.0 0.00 0.00 0.00 64 1011.6
20260509001855 58 52 0.0 0.0 0.00 0.00 0.00 65 1011.5
20260509001351 58 52 0.0 0.0 0.00 0.00 0.00 61 1011.6
20260509000848 58 52 0.0 0.0 0.00 0.00 0.00 61 1011.5
20260509000348 58 52 0.0 0.0 0.00 0.00 0.00 61 1011.5
20260508235842 59 52 0.0 0.0 0.00 0.00 0.00 57 1011.5
20260508235339 59 52 0.0 0.0 0.00 0.00 0.00 56 1011.4
20260508234836 60 52 0.0 0.0 0.00 0.00 0.00 54 1011.6
20260508234333 60 52 0.0 0.0 0.00 0.00 0.00 53 1011.3
20260508233831 61 52 0.0 0.0 0.00 0.00 0.00 52 1011.3
20260508233330 61 50 0.0 0.9 0.00 0.00 0.00 55 1011.3
20260508232827 62 51 0.0 0.0 0.00 0.00 0.00 53 1011.1
20260508232323 62 51 0.0 0.0 0.00 0.00 0.00 51 1011.3
20260508231822 62 51 0.0 0.0 0.00 0.00 0.00 50 1010.9
20260508231317 62 51 0.0 0.0 0.00 0.00 0.00 49 1010.9
20260508230814 62 51 0.0 0.0 0.00 0.00 0.00 49 1010.9
20260508230311 62 51 0.0 0.0 0.00 0.00 0.00 51 1010.9
20260508225809 62 51 0.0 0.0 0.00 0.00 0.00 51 1011.1
20260508225306 62 51 0.0 0.9 0.00 0.00 0.00 50 1010.9
20260508224803 62 51 0.9 1.7 0.00 0.00 0.00 50 1011.1